Location: Napier
(39.4830°S, 176.9170°E)
Time: 03:20:39
(UTC+12:00)

Cosmos 1666 Rocket - Pass Details

Date: 15 August 2020
Orbit: 605 x 632 km, 82.5° (Epoch: 20 September)

Event Time Altitude Azimuth Distance (km) Brightness Sun altitude
Rises 19:20:28 0° 187° (S) 2,925 7.1 -21.0°
Reaches altitude 10° 19:22:44 10° 186° (S) 2,007 6.2 -21.4°
Maximum altitude 19:27:11 85° 97° (E) 627 3.4 -22.3°
Enters shadow 19:30:14 20° 9° (N) 1,447 5.3 -22.9°
